Hourly Data Report for October 16, 2015

All times are specified in Local Standard Time (LST). Add 1 hour to adjust for Daylight Saving Time where and when it is observed.

IQALUIT CLIMATE
NUNAVUT

63°44'50.000" N
68°32'40.000" W
33.50 m
2402592
71321
XFB

Download Data

Hourly Data (October 2015)
Hourly Data Report for October 16, 2015
Temp Definition
°C
Dew Point Temp Definition
°C
Rel Hum Definition
%
Wind Dir Definition
10's deg

Wind Spd Definition
km/h
Visibility Definition
km
Stn Press Definition
kPa
Hmdx Definition


Wind Chill Definition


Weather Definition


TIME
00:00 -4.2 -7.8 76 30 18   100.37   -10 LegendNANA
01:00 -4.2 -7.6 77 35 11   100.42   -9 LegendNANA
02:00 -4.4 -7.4 79 32 13   100.43   -9 LegendNANA
03:00 -4.6 -8.2 76 34 10   100.48   -9 LegendNANA
04:00 -5.0 -8.5 77 33 13   100.50   -10 LegendNANA
05:00 -5.4 -8.6 78 33 15   100.54   -11 LegendNANA
06:00 -5.9 -9.1 78 32 15   100.55   -12 LegendNANA
07:00 -6.3 -9.5 78 33 16   100.56   -12 LegendNANA
08:00 -6.7 -9.2 82 33 14   100.60   -12 LegendNANA
09:00 -5.4 -8.8 77 32 16   100.61   -11 LegendNANA
10:00 -5.1 -8.9 75 32 23   100.61   -12 LegendNANA
11:00 -4.7 -8.7 74 32 21   100.60   -11 LegendNANA
12:00 -4.7 -8.7 74 32 22   100.62   -12 LegendNANA
13:00 -5.4 -9.7 72 33 22   100.64   -12 LegendNANA
14:00 -5.3 -10.0 69 31 18   100.68   -12 LegendNANA
15:00 -5.6 -10.3 69 32 22   100.70   -13 LegendNANA
16:00 -5.9 -10.5 70 31 17   100.72   -12 LegendNANA
17:00 -6.2 -11.1 68 32 17   100.74   -12 LegendNANA
18:00 -6.3 -10.5 72 32 18   100.75   -13 LegendNANA
19:00 -6.4 -10.5 72 31 16   100.76   -13 LegendNANA
20:00 -6.6 -10.4 74 33 13   100.74   -12 LegendNANA
21:00 -6.6 -10.7 73 35 14   100.71   -12 LegendNANA
22:00 -6.7 -10.4 75 34 8   100.70   -11 LegendNANA
23:00 -6.6 -10.0 77 32 5   100.68   -9 LegendNANA

Notes on Data Quality.

Legend

  • E = Estimated
  • M = Missing
  • NA = Not Available
  • ‡ = Partner data that is not subject to review by the National Climate Archives
Date modified: